Home > Weather > Thanjavur > Past weeks

Flag for India Weather for the Past 2 Weeks in Thanjavur, Tamil Nadu, India

Now
99 °F

Haze.


Feels Like: 110 °F
Forecast: 83 / 103 °F
Wind: 3 mph from Southeast

Location: Tiruchchirapalli

Current Time: May 4, 2016 at 11:42:56 AM

Latest Report: May 4, 2016 at 11:00 AM


Visibility: 3 mi

Pressure: 29.80 "Hg

Humidity: 44%

Dew Point: 73 °F

Location of ThanjavurLocation

Historic Weather in Thanjavur — Graph

°F

Thanjavur Temperature Yesterday

Maximum temperature yesterday: 106 °F (at 3:30 PM)
Minimum temperature yesterday: 84 °F (at 1:30 AM)
Average temperature yesterday: 93 °F

High & Low Weather Summary for the Past Weeks

 TemperatureHumidityPressure
High108 °F (Apr 22, 3:00 PM)84% (Apr 20, 3:30 AM)29.89 "Hg (Apr 20, 3:30 AM)
Low82 °F (Apr 26, 5:30 AM)28% (Apr 29, 3:30 PM)29.56 "Hg (Apr 24, 3:00 PM)
Average93 °F57%29.75 "Hg
* Reported Apr 19 9:30 AM — May 4 10:00 AM, Thanjavur, Weather by CustomWeather, © 2016

Note: Actual official high and low records may vary slightly from our data, if they occured in-between our weather recording intervals... More about our weather records

Advertising

Thanjavur Weather History for the Previous 24 Hours

Scroll right to see more
 ConditionsComfort  
Time TempWeatherWind HumidityBarometerVisibility
10:00 AM
Wed, May 4
95 °FHaze.6 mph53%29.83 "Hg2 mi
9:30 AM93 °FHaze.5 mph56%29.83 "Hg2 mi
9:00 AM91 °FHaze.3 mph59%29.83 "Hg2 mi
8:30 AM90 °FHaze.5 mph63%29.83 "Hg2 mi
8:00 AM88 °FHaze.2 mph70%29.80 "Hg2 mi
7:30 AM86 °FFog.No wind75%29.80 "Hg2 mi
7:00 AM84 °FFog.No wind79%29.80 "Hg2 mi
6:30 AM84 °FFog.No wind79%29.77 "Hg2 mi
6:00 AM84 °FFog.No wind79%29.77 "Hg3 mi
5:30 AM84 °FFog.No wind79%29.77 "Hg3 mi
5:00 AM84 °FHaze.No wind74%29.74 "Hg3 mi
4:30 AM84 °FHaze.No wind74%29.74 "Hg3 mi
4:00 AM84 °FHaze.No wind74%29.74 "Hg3 mi
3:30 AM86 °FHaze.No wind70%29.74 "Hg3 mi
3:00 AM86 °FHaze.3 mph70%29.74 "Hg3 mi
2:30 AM86 °FHaze.5 mph70%29.74 "Hg3 mi
2:00 AM86 °FPassing clouds.3 mph70%29.74 "Hg4 mi
1:30 AM86 °FPassing clouds.3 mph70%29.77 "Hg4 mi
1:00 AM86 °FPassing clouds.3 mph70%29.77 "Hg4 mi
12:30 AM88 °FPassing clouds.5 mph66%29.77 "Hg4 mi
12:00 AM88 °FPassing clouds.3 mph66%29.77 "Hg4 mi
11:30 PM
Tue, May 3
88 °FPassing clouds.5 mph66%29.80 "Hg4 mi
11:00 PM90 °FPassing clouds.7 mph63%29.80 "Hg4 mi
10:30 PM90 °FPassing clouds.9 mph59%29.77 "Hg4 mi
10:00 PM90 °FPassing clouds.9 mph59%29.77 "Hg4 mi
9:30 PM91 °FPassing clouds.9 mph59%29.77 "Hg4 mi
9:00 PM91 °FPassing clouds.9 mph59%29.74 "Hg4 mi
8:30 PM91 °FPassing clouds.9 mph59%29.74 "Hg4 mi
8:00 PM91 °FPassing clouds.8 mph59%29.74 "Hg4 mi
7:30 PM93 °FPassing clouds.8 mph56%29.71 "Hg4 mi
7:00 PM95 °FPassing clouds.12 mph50%29.71 "Hg4 mi
6:30 PM97 °FPassing clouds.13 mph47%29.68 "Hg4 mi
6:00 PM99 °FPassing clouds.13 mph44%29.68 "Hg5 mi
5:00 PM102 °FPassing clouds.14 mph33%29.65 "HgN/A
4:30 PM104 °FPassing clouds.13 mph31%29.65 "HgN/A
4:00 PM106 °FPassing clouds.8 mph30%29.65 "HgN/A
3:30 PM106 °FPassing clouds.5 mph30%29.65 "HgN/A
3:00 PM104 °FPassing clouds.5 mph33%29.68 "HgN/A
2:30 PM104 °FPassing clouds.6 mph35%29.68 "HgN/A
2:00 PM102 °FPassing clouds.6 mph40%29.71 "HgN/A
1:30 PM102 °FPassing clouds.5 mph42%29.74 "Hg5 mi
1:00 PM102 °FPassing clouds.6 mph42%29.74 "Hg5 mi
12:30 PM100 °FPassing clouds.5 mph45%29.77 "Hg5 mi
12:00 PM100 °FPassing clouds.7 mph45%29.77 "Hg5 mi
11:30 AM99 °FPassing clouds.6 mph47%29.80 "Hg5 mi
11:00 AM97 °FPassing clouds.7 mph53%29.80 "Hg5 mi
Weather by CustomWeather, © 2016

See weather overviewHow to use our weather pages